SCP
0 0 0 0 0 0 -0 -0 -0 -0 -0 -0 -0 -0 -0 -0 -0 -0 -0 -0 -0 -0 -0 -0 -0 -0 -0
0 0 0 0 0 0 0 0 -0 -0 -0 -0 -0 -0 -0 -0 -0 -0 -0 -0 -0 -0 -0 -0 0 0 0
0 0 0 0 0 0 0 0 0 -0 -0 -0 -0 -0 -0 -0 -0 -0 -0 -0 -0 -0 -0 0 0 0 0
0 0 0 0 0 0 0 0 0 0 0 0 0 -0 -0 -0 -0 -0 -0 0 0 0 0 0 0 0 0
0 0 0 0 0 0 0 0 0 0 0 0 0 0 0 -0 0 0 0 0 0 0 0 0 0 0 0
0 0 0 0 0 0 0 0 0 0 0 0 0 0 0 0 0 0 0 0 0 0 0 0 0 0 0
0 0 0 0 0 0 0 0 0 0 0 0 0 0 0 0 0 0 0 0 0 0 0 0 0 0 0
0 0 0 0 0 0 0 0 0 0 0 0 0 0 0 0 0 0 0 0 0 0 0 0 0 0 0
0 0 0 0 0 0 0 0 0 0 0 0 0 0 0 0 0 0 0 0 0 0 0 0 0 0 0
0 0 0 0 0 0 0 0 0 0 0 0 0 0 0 0 0 0 0 0 0 0 0 0 0 0 0
0 0 0 0 0 0 0 0 0 0 0 0 0 0 0 0 0 0 0 0 0 0 0 0 0 0 0
0 0 0 0 0 0 0 0 0 0 0 0 0 0 0 0 0 0 0 0 0 0 0 0 0 0 0
0 0 0 0 0 0 0 0 0 0 0 0 0 0 0 0 0 0 0 0 0 0 0 0 0 0 0
0 0 0 0 0 0 0 0 0 0 0 0 0 0 0 0 0 0 0 0 0 0 0 0 0 0 0
0 0 0 0 0 0 0 0 0 0 0 0 0 0 0 0 0 0 0 0 0 0 0 0 0 0 0
0 0 0 0 0 0 0 0 0 0 0 0 0 0 0 0 0 0 0 0 0 0 0 0 0 0 0
Wind_Speed_500mb
31 37 42 40 35 24 14 18 23 23 27 27 27 26 26 24 23 24 26 24 22 20 24 28 29 28 31
38 43 43 39 40 27 19 19 24 26 28 30 27 23 19 16 17 18 22 20 17 18 18 20 23 29 32
42 46 45 44 38 26 24 22 26 27 30 29 26 25 23 17 15 15 16 17 14 15 11 15 18 27 29
45 51 48 47 41 31 28 29 28 29 28 30 26 23 19 21 15 12 12 15 15 16 11 10 15 23 24
52 52 45 48 43 37 31 33 33 32 32 29 28 26 23 18 12 10 15 20 23 15 8 10 13 17 21
54 53 47 45 46 42 37 38 37 35 35 31 27 27 22 18 13 11 14 19 17 16 12 14 14 18 20
57 56 52 47 48 43 41 42 40 37 36 32 29 24 21 17 14 11 11 13 15 18 19 21 18 18 19
60 61 57 53 50 46 43 45 43 39 35 30 25 22 19 17 17 16 12 13 14 21 22 23 20 19 19
62 60 60 57 53 49 46 48 47 44 36 30 27 24 20 19 19 20 18 18 20 24 24 24 21 19 22
66 63 63 60 56 52 50 53 50 46 38 35 33 29 23 20 20 21 20 17 24 25 28 27 23 21 22
70 67 66 63 61 56 53 55 56 49 44 38 33 29 25 23 23 24 23 20 20 26 30 27 24 23 24
74 71 68 66 65 61 58 58 59 55 50 43 38 32 29 28 28 29 28 24 23 24 30 28 26 24 26
82 80 76 76 73 69 64 61 61 60 56 52 46 40 35 32 30 32 32 28 31 31 32 30 27 26 28
86 83 79 76 76 72 70 65 63 64 63 59 55 49 43 38 39 39 39 35 36 35 34 27 17 28 35
85 82 80 76 75 79 79 72 71 71 69 66 61 56 51 46 44 42 43 41 39 39 41 21 14 14 25
84 88 86 95 94 90 84 78 77 75 73 71 67 64 59 56 52 48 47 46 46 43 47 47 33 18 14
Wind_Direction_500mb
174 164 155 149 170 180 169 143 139 136 137 132 129 127 128 130 133 120 116 104 94 92 78 83 84 96 96
174 166 160 165 178 185 187 157 146 141 137 137 135 135 139 135 127 131 130 111 109 113 83 86 91 99 94
176 176 173 182 183 186 181 163 151 148 146 147 146 143 141 140 136 138 144 146 138 120 92 96 100 112 99
180 181 181 186 187 193 182 169 162 156 154 155 152 153 146 146 136 136 154 156 155 139 112 114 108 123 128
189 183 182 186 190 192 186 177 172 166 158 159 161 164 164 162 145 131 148 160 168 178 183 163 131 136 144
194 190 189 189 190 191 188 183 179 172 166 166 160 171 172 174 175 149 136 164 182 193 194 178 152 148 151
197 194 193 192 194 194 192 188 184 179 173 171 171 170 175 188 185 179 170 172 183 200 187 180 166 162 165
201 200 197 196 196 197 197 193 188 185 184 183 181 186 190 198 198 199 199 192 194 186 185 172 173 173 171
205 204 202 200 199 200 200 197 193 191 193 194 197 196 198 205 203 204 205 203 199 190 188 180 181 179 175
207 207 206 205 204 204 203 201 199 198 200 204 213 201 204 209 206 206 208 212 204 199 188 186 187 187 185
211 211 210 209 208 208 207 207 205 206 205 210 215 208 206 214 209 207 208 214 217 202 185 191 195 195 195
213 214 212 213 212 212 212 211 210 209 210 213 214 215 216 219 214 209 211 214 211 211 192 197 203 204 204
214 214 214 214 213 215 214 215 213 214 215 216 219 221 222 226 226 219 217 218 212 206 199 203 208 212 215
217 217 219 220 219 220 220 218 217 217 218 219 221 225 226 227 226 224 224 222 218 213 202 201 210 225 224
218 218 221 223 223 221 222 220 219 220 221 222 225 228 230 232 235 235 230 229 228 218 212 199 195 211 215
218 220 221 224 224 224 225 223 223 223 224 224 226 229 231 234 238 238 237 234 233 232 222 222 226 212 186
Wind_Speed_850mb
31 37 42 40 35 24 14 18 23 23 27 27 27 26 26 24 23 24 26 24 22 20 24 28 29 28 31
38 43 43 39 40 27 19 19 24 26 28 30 27 23 19 16 17 18 22 20 17 18 18 20 23 29 32
42 46 45 44 38 26 24 22 26 27 30 29 26 25 23 17 15 15 16 17 14 15 11 15 18 27 29
45 51 48 47 41 31 28 29 28 29 28 30 26 23 19 21 15 12 12 15 15 16 11 10 15 23 24
52 52 45 48 43 37 31 33 33 32 32 29 28 26 23 18 12 10 15 20 23 15 8 10 13 17 21
54 53 47 45 46 42 37 38 37 35 35 31 27 27 22 18 13 11 14 19 17 16 12 14 14 18 20
57 56 52 47 48 43 41 42 40 37 36 32 29 24 21 17 14 11 11 13 15 18 19 21 18 18 19
60 61 57 53 50 46 43 45 43 39 35 30 25 22 19 17 17 16 12 13 14 21 22 23 20 19 19
62 60 60 57 53 49 46 48 47 44 36 30 27 24 20 19 19 20 18 18 20 24 24 24 21 19 22
66 63 63 60 56 52 50 53 50 46 38 35 33 29 23 20 20 21 20 17 24 25 28 27 23 21 22
70 67 66 63 61 56 53 55 56 49 44 38 33 29 25 23 23 24 23 20 20 26 30 27 24 23 24
74 71 68 66 65 61 58 58 59 55 50 43 38 32 29 28 28 29 28 24 23 24 30 28 26 24 26
82 80 76 76 73 69 64 61 61 60 56 52 46 40 35 32 30 32 32 28 31 31 32 30 27 26 28
86 83 79 76 76 72 70 65 63 64 63 59 55 49 43 38 39 39 39 35 36 35 34 27 17 28 35
85 82 80 76 75 79 79 72 71 71 69 66 61 56 51 46 44 42 43 41 39 39 41 21 14 14 25
84 88 86 95 94 90 84 78 77 75 73 71 67 64 59 56 52 48 47 46 46 43 47 47 33 18 14
Wind_Direction_850mb
174 164 155 149 170 180 169 143 139 136 137 132 129 127 128 130 133 120 116 104 94 92 78 83 84 96 96
174 166 160 165 178 185 187 157 146 141 137 137 135 135 139 135 127 131 130 111 109 113 83 86 91 99 94
176 176 173 182 183 186 181 163 151 148 146 147 146 143 141 140 136 138 144 146 138 120 92 96 100 112 99
180 181 181 186 187 193 182 169 162 156 154 155 152 153 146 146 136 136 154 156 155 139 112 114 108 123 128
189 183 182 186 190 192 186 177 172 166 158 159 161 164 164 162 145 131 148 160 168 178 183 163 131 136 144
194 190 189 189 190 191 188 183 179 172 166 166 160 171 172 174 175 149 136 164 182 193 194 178 152 148 151
197 194 193 192 194 194 192 188 184 179 173 171 171 170 175 188 185 179 170 172 183 200 187 180 166 162 165
201 200 197 196 196 197 197 193 188 185 184 183 181 186 190 198 198 199 199 192 194 186 185 172 173 173 171
205 204 202 200 199 200 200 197 193 191 193 194 197 196 198 205 203 204 205 203 199 190 188 180 181 179 175
207 207 206 205 204 204 203 201 199 198 200 204 213 201 204 209 206 206 208 212 204 199 188 186 187 187 185
211 211 210 209 208 208 207 207 205 206 205 210 215 208 206 214 209 207 208 214 217 202 185 191 195 195 195
213 214 212 213 212 212 212 211 210 209 210 213 214 215 216 219 214 209 211 214 211 211 192 197 203 204 204
214 214 214 214 213 215 214 215 213 214 215 216 219 221 222 226 226 219 217 218 212 206 199 203 208 212 215
217 217 219 220 219 220 220 218 217 217 218 219 221 225 226 227 226 224 224 222 218 213 202 201 210 225 224
218 218 221 223 223 221 222 220 219 220 221 222 225 228 230 232 235 235 230 229 228 218 212 199 195 211 215
218 220 221 224 224 224 225 223 223 223 224 224 226 229 231 234 238 238 237 234 233 232 222 222 226 212 186